Simultaneous Nadir Overpasses (SNOs) Predictions

Prediction of SNOs between GOES-15 and NOAA-20 Satellite Orbit:

Table of predicted SNOs for the next 14.0 days since TLE Epoch: 11/30/2024
Index Date Time (GOES-15) GOES-15 Lat,Lon NOAA-20 Lat,Lon Distance(km) Time Diff (sec)
1 12/01/2024 09:19:17 -0.02, 61.57 -0.18, 60.75 93.12 80
2 12/02/2024 09:03:10 -0.03, 61.56 0.83, 65.29 425.44 80
3 12/03/2024 21:24:54 0.01, 61.49 0.36, 60.03 166.73 80
4 12/04/2024 21:03:28 0.02, 61.49 -0.66, 64.57 350.59 80
5 12/06/2024 09:25:22 -0.00, 61.56 -0.50, 59.27 260.34 80
6 12/07/2024 09:09:16 -0.01, 61.55 0.52, 63.81 257.68 80
7 12/08/2024 21:31:00 -0.01, 61.47 0.66, 58.55 333.38 80
8 12/09/2024 21:09:34 0.00, 61.48 -0.37, 63.09 183.76 80
9 12/11/2024 09:31:27 0.02, 61.56 -0.82, 57.80 428.94 80
10 12/12/2024 09:15:19 0.01, 61.56 0.15, 62.34 88.73 80
